�������l�o���
Date,Time,MP-1(��Sv/h),MP-2(��Sv/h),MP-3(��Sv/h),MP-4(��Sv/h),MP-5(��Sv/h),MP-6(��Sv/h),MP-7(��Sv/h),MP-8(��Sv/h),����,����(m/s),���J
2020/07/25,00:00,0.645,0.915,0.581,1.109,0.799,0.390,0.662,0.620,��쐼,2.8,�L
2020/07/25,00:10,0.646,0.915,0.583,1.107,0.801,0.389,0.662,0.622,��쐼,3.0,�L
2020/07/25,00:20,0.645,0.918,0.580,1.108,0.797,0.392,0.663,0.624,��쐼,3.3,�L
2020/07/25,00:30,0.647,0.920,0.584,1.109,0.799,0.393,0.664,0.624,��쐼,4.0,��
2020/07/25,00:40,0.646,0.918,0.583,1.111,0.799,0.393,0.663,0.624,�쐼,3.7,�L
2020/07/25,00:50,0.648,0.918,0.584,1.111,0.800,0.392,0.663,0.624,�쐼,3.8,�L
2020/07/25,01:00,0.648,0.921,0.584,1.113,0.801,0.393,0.664,0.624,��쐼,3.8,�L
2020/07/25,01:10,0.648,0.920,0.583,1.111,0.800,0.394,0.663,0.625,��쐼,4.0,�L
2020/07/25,01:20,0.648,0.917,0.585,1.112,0.802,0.393,0.663,0.624,��,3.4,�L
2020/07/25,01:30,0.649,0.919,0.585,1.112,0.801,0.391,0.662,0.626,��쐼,2.5,�L
2020/07/25,01:40,0.647,0.919,0.582,1.110,0.800,0.392,0.664,0.624,��쐼,2.5,��
2020/07/25,01:50,0.646,0.919,0.582,1.110,0.801,0.393,0.663,0.623,��쐼,2.3,��
2020/07/25,02:00,0.647,0.919,0.584,1.109,0.800,0.392,0.663,0.623,��,2.0,�L
2020/07/25,02:10,0.646,0.919,0.581,1.111,0.802,0.393,0.664,0.622,��쐼,1.7,�L
2020/07/25,02:20,0.649,0.919,0.582,1.112,0.801,0.393,0.663,0.625,��,2.2,��
2020/07/25,02:30,0.647,0.920,0.584,1.110,0.802,0.391,0.663,0.624,��쐼,2.3,�L
2020/07/25,02:40,0.648,0.920,0.584,1.112,0.800,0.394,0.664,0.626,��쐼,2.3,�L
2020/07/25,02:50,0.647,0.922,0.583,1.109,0.800,0.393,0.664,0.624,��쐼,2.6,�L
2020/07/25,03:00,0.649,0.920,0.585,1.112,0.801,0.393,0.663,0.624,��,3.3,�L
2020/07/25,03:10,0.649,0.921,0.585,1.111,0.801,0.393,0.663,0.624,��쐼,3.4,�L
2020/07/25,03:20,0.650,0.917,0.585,1.111,0.800,0.394,0.663,0.624,��,3.3,�L
2020/07/25,03:30,0.647,0.920,0.584,1.111,0.801,0.394,0.663,0.625,��쐼,3.6,�L
2020/07/25,03:40,0.650,0.920,0.585,1.109,0.800,0.392,0.663,0.622,��,3.0,�L
2020/07/25,03:50,0.645,0.918,0.585,1.111,0.800,0.392,0.663,0.623,��쓌,2.6,�L
2020/07/25,04:00,0.648,0.919,0.583,1.109,0.799,0.393,0.663,0.625,��쐼,1.9,�L
2020/07/25,04:10,0.646,0.919,0.584,1.111,0.799,0.393,0.663,0.624,��쐼,2.0,�L
2020/07/25,04:20,0.647,0.921,0.583,1.111,0.800,0.394,0.663,0.624,�쐼,2.0,�L
2020/07/25,04:30,0.648,0.920,0.584,1.111,0.799,0.392,0.663,0.624,���쐼,1.7,�L
2020/07/25,04:40,0.647,0.918,0.584,1.110,0.802,0.393,0.663,0.624,�k��,1.2,�L
2020/07/25,04:50,0.649,0.920,0.584,1.111,0.801,0.393,0.663,0.624,��,1.2,�L
2020/07/25,05:00,0.648,0.920,0.585,1.111,0.800,0.394,0.663,0.625,���k��,0.6,�L
2020/07/25,05:10,0.647,0.919,0.584,1.112,0.802,0.394,0.663,0.624,�k�k��,0.9,�L
2020/07/25,05:20,0.645,0.920,0.584,1.111,0.801,0.393,0.663,0.623,�k�k��,0.9,�L
2020/07/25,05:30,0.646,0.917,0.583,1.109,0.800,0.394,0.661,0.624,�k�k��,1.2,�L
2020/07/25,05:40,0.647,0.916,0.582,1.110,0.798,0.392,0.662,0.623,���k��,0.6,�L
2020/07/25,05:50,0.646,0.918,0.582,1.111,0.799,0.393,0.662,0.623,��,0.8,�L
2020/07/25,06:00,0.648,0.917,0.583,1.109,0.799,0.391,0.661,0.623,-,CALM,�L
2020/07/25,06:10,0.647,0.918,0.583,1.109,0.800,0.391,0.662,0.623,�쐼,1.1,�L
2020/07/25,06:20,0.648,0.917,0.582,1.110,0.798,0.392,0.663,0.623,��쐼,1.5,�L
2020/07/25,06:30,0.646,0.916,0.584,1.110,0.799,0.394,0.661,0.622,��쐼,0.9,�L
2020/07/25,06:40,0.646,0.917,0.583,1.110,0.796,0.391,0.662,0.624,��쓌,0.9,�L
2020/07/25,06:50,0.648,0.917,0.584,1.110,0.799,0.394,0.662,0.623,�쓌,0.9,�L
2020/07/25,07:00,0.646,0.915,0.583,1.109,0.800,0.392,0.663,0.622,��쓌,2.2,�L
2020/07/25,07:10,0.646,0.916,0.583,1.107,0.799,0.392,0.662,0.623,��쓌,4.7,�L
2020/07/25,07:20,0.647,0.915,0.582,1.108,0.800,0.391,0.662,0.622,��,7.0,�L
2020/07/25,07:30,0.647,0.915,0.583,1.109,0.798,0.392,0.657,0.622,��,6.4,�L
2020/07/25,07:40,0.646,0.914,0.583,1.108,0.797,0.391,0.660,0.621,��,4.9,�L
2020/07/25,07:50,0.645,0.915,0.582,1.109,0.798,0.392,0.660,0.621,�쐼,3.4,�L
2020/07/25,08:00,0.645,0.916,0.585,1.109,0.798,0.392,0.661,0.622,���쐼,3.1,�L
2020/07/25,08:10,0.645,0.916,0.584,1.108,0.799,0.392,0.660,0.624,��,2.3,��
2020/07/25,08:20,0.645,0.918,0.586,1.112,0.799,0.393,0.662,0.624,��,1.5,��
2020/07/25,08:30,0.646,0.918,0.583,1.110,0.801,0.393,0.660,0.622,���k��,0.8,��
2020/07/25,08:40,0.646,0.917,0.583,1.110,0.801,0.392,0.663,0.625,���k��,1.2,��
2020/07/25,08:50,0.647,0.917,0.582,1.112,0.798,0.392,0.661,0.623,�쐼,0.6,��
2020/07/25,09:00,0.648,0.915,0.581,1.110,0.799,0.392,0.663,0.622,���쐼,0.6,��
2020/07/25,09:10,0.648,0.920,0.584,1.107,0.799,0.391,0.662,0.624,���쐼,1.2,��
2020/07/25,09:20,0.650,0.918,0.583,1.110,0.800,0.392,0.662,0.622,�k,0.8,��
2020/07/25,09:30,0.647,0.919,0.582,1.108,0.800,0.393,0.662,0.622,�k�k��,1.4,��
2020/07/25,09:40,0.648,0.919,0.583,1.109,0.801,0.393,0.663,0.622,�k,1.1,��
2020/07/25,09:50,0.650,0.919,0.585,1.109,0.802,0.392,0.661,0.625,�k�k��,2.5,��
2020/07/25,10:00,0.648,0.919,0.584,1.108,0.800,0.392,0.664,0.622,���k��,2.3,��
2020/07/25,10:10,0.647,0.919,0.583,1.108,0.802,0.392,0.663,0.622,�k�k��,2.5,��
2020/07/25,10:20,0.649,0.922,0.585,1.110,0.800,0.392,0.664,0.622,�k�k��,2.8,��
2020/07/25,10:30,0.650,0.922,0.585,1.113,0.802,0.393,0.664,0.625,�k�k��,3.4,��
2020/07/25,10:40,0.649,0.922,0.585,1.109,0.801,0.394,0.665,0.624,�k,3.2,��
2020/07/25,10:50,0.650,0.923,0.584,1.110,0.803,0.393,0.663,0.624,�k�k��,4.3,��
2020/07/25,11:00,0.650,0.920,0.585,1.110,0.804,0.392,0.664,0.624,�k�k��,3.9,��
2020/07/25,11:10,0.649,0.922,0.586,1.111,0.802,0.392,0.665,0.624,�k�k��,5.1,��
2020/07/25,11:20,0.651,0.923,0.584,1.111,0.803,0.392,0.664,0.624,�k�k��,4.6,��
2020/07/25,11:30,0.649,0.923,0.585,1.111,0.805,0.392,0.664,0.625,�k�k��,4.2,��
2020/07/25,11:40,0.651,0.925,0.584,1.112,0.807,0.392,0.665,0.624,�k��,3.6,��
2020/07/25,11:50,0.648,0.925,0.585,1.110,0.805,0.392,0.664,0.623,���k��,2.5,�L
2020/07/25,12:00,0.649,0.924,0.585,1.113,0.804,0.392,0.664,0.623,�k��,1.9,�L
2020/07/25,12:10,0.649,0.923,0.588,1.113,0.804,0.392,0.665,0.623,�k,1.1,�L
2020/07/25,12:20,0.649,0.923,0.586,1.113,0.805,0.391,0.663,0.625,�k,1.9,�L
2020/07/25,12:30,0.649,0.923,0.586,1.111,0.806,0.393,0.664,0.621,�k�k��,1.7,�L
2020/07/25,12:40,0.649,0.925,0.583,1.114,0.804,0.392,0.665,0.624,�k��,1.7,�L
2020/07/25,12:50,0.650,0.922,0.586,1.115,0.803,0.391,0.665,0.624,�k�k��,1.5,�L
2020/07/25,13:00,0.647,0.923,0.587,1.115,0.805,0.391,0.665,0.624,�k,1.7,�L
2020/07/25,13:10,0.648,0.923,0.586,1.113,0.806,0.391,0.662,0.624,�k,1.9,�L
2020/07/25,13:20,0.648,0.928,0.587,1.115,0.806,0.391,0.665,0.623,�k�k��,1.5,��
2020/07/25,13:30,0.648,0.926,0.587,1.115,0.809,0.391,0.665,0.624,�k�k��,2.3,�L
2020/07/25,13:40,0.651,0.928,0.588,1.115,0.806,0.392,0.664,0.623,�k�k��,2.3,�L
2020/07/25,13:50,0.649,0.926,0.587,1.116,0.806,0.392,0.664,0.625,�k,2.0,�L
2020/07/25,14:00,0.649,0.926,0.589,1.117,0.808,0.391,0.664,0.623,�k,2.2,�L
2020/07/25,14:10,0.648,0.926,0.588,1.117,0.806,0.390,0.664,0.623,�k,2.0,�L
2020/07/25,14:20,0.649,0.925,0.588,1.116,0.809,0.390,0.663,0.625,�k,1.9,�L
2020/07/25,14:30,0.648,0.924,0.586,1.118,0.805,0.390,0.665,0.624,�k,2.6,�L
2020/07/25,14:40,0.649,0.925,0.586,1.116,0.809,0.392,0.664,0.622,�k,2.6,�L
2020/07/25,14:50,0.650,0.923,0.588,1.119,0.808,0.390,0.664,0.622,�k,2.3,�L
2020/07/25,15:00,0.651,0.927,0.587,1.117,0.806,0.392,0.663,0.624,�k,1.2,�L
2020/07/25,15:10,0.649,0.925,0.588,1.117,0.808,0.390,0.663,0.624,�k�k��,1.2,��
2020/07/25,15:20,0.647,0.923,0.588,1.115,0.809,0.389,0.664,0.623,�k,1.4,��
2020/07/25,15:30,0.649,0.929,0.589,1.118,0.807,0.390,0.665,0.624,�k,1.2,��
2020/07/25,15:40,0.649,0.930,0.588,1.118,0.809,0.390,0.664,0.625,�k�k��,1.1,��
2020/07/25,15:50,0.649,0.929,0.589,1.117,0.808,0.388,0.665,0.623,�k��,2.8,��
2020/07/25,16:00,0.650,0.931,0.588,1.118,0.809,0.389,0.664,0.624,�k��,2.8,��
2020/07/25,16:10,0.649,0.930,0.589,1.117,0.810,0.389,0.664,0.625,�k�k��,2.6,��
2020/07/25,16:20,0.650,0.928,0.586,1.116,0.810,0.389,0.665,0.624,�k�k��,2.2,�L
2020/07/25,16:30,0.649,0.926,0.587,1.116,0.809,0.390,0.665,0.625,�k�k��,3.0,�L
2020/07/25,16:40,0.649,0.928,0.587,1.117,0.809,0.390,0.665,0.624,�k�k��,3.4,�L
2020/07/25,16:50,0.649,0.927,0.587,1.116,0.806,0.391,0.665,0.623,�k�k��,2.0,�L
2020/07/25,17:00,0.650,0.931,0.589,1.119,0.809,0.391,0.665,0.624,�k,4.3,�L
2020/07/25,17:10,0.649,0.929,0.589,1.118,0.807,0.392,0.665,0.624,�k�k��,3.3,�L
2020/07/25,17:20,0.651,0.932,0.590,1.119,0.809,0.392,0.666,0.624,�k�k��,2.6,��
2020/07/25,17:30,0.650,0.928,0.587,1.118,0.809,0.391,0.667,0.626,�k�k��,2.3,�L
2020/07/25,17:40,0.651,0.931,0.590,1.118,0.809,0.392,0.666,0.625,�k�k��,2.0,�L
2020/07/25,17:50,0.651,0.928,0.589,1.118,0.808,0.392,0.666,0.625,�k�k��,1.5,�L
2020/07/25,18:00,0.649,0.928,0.588,1.117,0.807,0.390,0.667,0.625,�k�k��,1.7,��
2020/07/25,18:10,0.650,0.929,0.590,1.121,0.808,0.392,0.667,0.625,��,0.6,�L
2020/07/25,18:20,0.652,0.930,0.590,1.117,0.807,0.390,0.666,0.625,�k�k��,1.2,�L
2020/07/25,18:30,0.650,0.929,0.589,1.119,0.808,0.392,0.668,0.626,�k�k��,1.2,�L
2020/07/25,18:40,0.650,0.929,0.589,1.117,0.808,0.391,0.665,0.625,�k�k��,2.0,�L
2020/07/25,18:50,0.649,0.928,0.588,1.118,0.808,0.391,0.665,0.623,�k,3.6,�L
2020/07/25,19:00,0.649,0.930,0.589,1.121,0.809,0.392,0.666,0.625,�k,3.8,�L
2020/07/25,19:10,0.651,0.929,0.589,1.118,0.806,0.392,0.666,0.626,�k,4.3,�L
2020/07/25,19:20,0.650,0.929,0.589,1.118,0.806,0.390,0.667,0.626,�k,5.4,�L
2020/07/25,19:30,0.649,0.929,0.589,1.119,0.808,0.392,0.666,0.626,�k,5.0,�L
2020/07/25,19:40,0.651,0.928,0.587,1.117,0.809,0.391,0.665,0.626,�k,4.7,��
2020/07/25,19:50,0.649,0.928,0.590,1.119,0.809,0.392,0.665,0.629,�k,3.7,��
2020/07/25,20:00,0.648,0.930,0.587,1.118,0.808,0.390,0.666,0.627,�k�k��,3.7,��
2020/07/25,20:10,0.648,0.928,0.589,1.119,0.808,0.391,0.665,0.627,�k�k��,3.7,��
2020/07/25,20:20,0.648,0.931,0.585,1.120,0.809,0.390,0.664,0.624,�k�k��,4.4,��
2020/07/25,20:30,0.647,0.929,0.588,1.118,0.808,0.390,0.666,0.626,�k,4.4,�L
2020/07/25,20:40,0.646,0.929,0.587,1.118,0.808,0.389,0.665,0.625,�k�k��,4.4,�L
2020/07/25,20:50,0.646,0.928,0.588,1.118,0.808,0.388,0.665,0.626,�k,4.2,�L
2020/07/25,21:00,0.646,0.928,0.589,1.120,0.807,0.390,0.665,0.626,�k�k��,3.8,�L
2020/07/25,21:10,0.646,0.929,0.588,1.118,0.806,0.390,0.664,0.625,�k,3.9,�L
2020/07/25,21:20,0.648,0.927,0.588,1.119,0.807,0.390,0.664,0.627,�k,3.9,�L
2020/07/25,21:30,0.647,0.926,0.588,1.119,0.808,0.389,0.664,0.627,�k,4.0,��
2020/07/25,21:40,0.646,0.928,0.587,1.119,0.807,0.389,0.665,0.627,�k,4.2,��
2020/07/25,21:50,0.648,0.926,0.588,1.120,0.804,0.390,0.665,0.627,�k,3.9,��
2020/07/25,22:00,0.649,0.928,0.587,1.119,0.806,0.389,0.666,0.626,�k,2.9,��
2020/07/25,22:10,0.647,0.929,0.588,1.118,0.807,0.388,0.666,0.625,�k,2.0,��
2020/07/25,22:20,0.648,0.928,0.587,1.119,0.805,0.388,0.666,0.626,�k,1.9,��
2020/07/25,22:30,0.647,0.928,0.587,1.120,0.809,0.387,0.665,0.625,�k,1.5,��
2020/07/25,22:40,0.649,0.929,0.586,1.119,0.808,0.389,0.666,0.627,�k,1.1,��
2020/07/25,22:50,0.648,0.929,0.587,1.119,0.809,0.389,0.666,0.627,�k,0.9,�L
2020/07/25,23:00,0.646,0.929,0.588,1.119,0.808,0.388,0.666,0.626,�k�k��,0.9,�L
2020/07/25,23:10,0.648,0.929,0.588,1.122,0.809,0.390,0.666,0.626,�k�k��,1.2,�L
2020/07/25,23:20,0.650,0.927,0.588,1.120,0.808,0.389,0.666,0.626,�k�k��,1.7,�L
2020/07/25,23:30,0.649,0.929,0.588,1.121,0.807,0.388,0.665,0.626,�k�k��,0.8,�L
2020/07/25,23:40,0.648,0.928,0.588,1.118,0.807,0.390,0.663,0.626,�k��,0.9,�L
2020/07/25,23:50,0.650,0.930,0.589,1.121,0.807,0.388,0.666,0.626,�k��,1.4,�L
